Weather in Bura

Russia / Zabaykalsky Krai     50°45′10″N   119°26′53″E
temp.,
°C
wind,
m/s
gust,
m/s
humid.,
%
clouds,
%
prec.,
mm/h
press.,
hPa
HPBL,
m
3 march, wed
wed300:00−22sse12100100 0.0 101820
03:00−22sse22100100 0.1 101620
06:00−20sse2299100 0.0 101528
09:00−19sse1298100 0.1 101376
12:00−14s2392100 0.0 1010296
15:00−12ssw1288100 0.1 1007290
18:00−12ssw2394100 0.0 1008174
21:00−16wsw0196100 0.1 101020
4 march, thu
thu400:00−18sse229740 0.0 101120
03:00−16ssw229760 0.2 101036
06:00−15ssw2296100 0.2 101031
09:00−17w229083 0.2 101320
12:00−14wnw47770 0.0 1015661
15:00−13nw797728 0.0 10181167
18:00−16nnw41091100 0.1 1023519
21:00−21nnw3987100 0.3 1029206
5 march, fri
fri500:00−26nnw33890 0.0 103422
03:00−29nnw22900 0.0 103819
06:00−31n22930 0.0 104119
09:00−30nnw11880 0.0 104419
12:00−24w11840 0.0 1043204
15:00−22sw22780 0.0 1042296
18:00−24s23850 0.0 104220
21:00−27sse23860 0.0 104419
6 march, sat
sat600:00−28sse23870 0.0 104319
03:00−29sse22880 0.0 104319
06:00−29se229352 0.0 104119
09:00−25se229559 0.0 103882
12:00−21s3493100 0.0 1034355
15:00−18s3591100 0.0 1030462
18:00−18sse1394100 0.0 1028260
21:00−19ese0196100 0.1 103020
7 march, sun
sun700:00−23sw0110012 0.0 102920
03:00−24ssw1110030 0.0 102920
06:00−24s2210075 0.0 102920
09:00−22s229873 0.0 102938
12:00−16ssw229171 0.0 1028183
15:00−13ssw228957 0.0 1027176
18:00−14s229328 0.0 102720
21:00−17sse229013 0.0 103020